Portada
METAR-TAF:

METAR-TAF

Aeropuertos :

Fairmont Municipal Airport

Fairmont, Minnesota, Estados Unidos

latitud: 43-39N, longitud: 094-25W, altitud: 354 m

Observación

El informe se hizo hace 44 minutos, a las 12:56 UTC
Viento 5 kt del este
Temperatura 7°C
Humedad 39%
Presión 1030 hPa
Visibilidad: 16.1 km
Cielo despejado

METAR: KFRM 111256Z AUTO 08005KT 10SM CLR 07/M06 A3041 RMK AO2 SLP305 T00671056

Hora: 08:40 (13:40 UTC)


TAF: falta

Observaciones y pronósticos meteorológicos de más de 4000 aeropuertos (mensajes METAR y TAF).

Los puntos amarillos y rojos representan las estaciones disponibles.

Ponga el ratón en el punto deseado para ver el nombre de la estación.

Haga clic para ver las observaciones y los pronósticos meteorológicos.

Para cambiar el mapa : haga clic en los botones verdes con una cruz de color negro para hacer un zoom, en el botón verde con un guión para alejar o en las flechas verdes para mapas adyacentes.


METAR-TAF: